User: anonymous   Login
Location: Boiro
(42.6475°N, 8.8834°W)
Time: 16:13:58
(UTC+02:00)
Language:

DELTA 1 DEB - Orbit

View from above orbital plane
View from above orbital plane
View from above satellite
View from above satellite

Ground track
Ground track

The orbit data is extracted from the following two-line orbital elements,

1 37662U 78026JZ  22182.21631618  .00000201  00000-0  12938-3 0  9999
2 37662  98.9801 166.6534 0034123 233.4562 126.3467 14.13825218462017
Epoch (UTC): 01 July 2022 05:11:29
Eccentricity: 0.0034123
inclination: 98.9801°
perigee height: 821 km
apogee height: 871 km
right ascension of ascending node: 166.6534°
argument of perigee: 233.4562°
revolutions per day: 14.13825218
mean anomaly at epoch: 126.3467°
orbit number at epoch: 46201

The dashed part of the orbit path shows where the satellite is in the earth's shadow,  

DLR